[[{"header":{"parameterUnit":"m.s-1","parameterCategory":1,"la1":30.2991,"la2":30.254,"lo1":-89.0895,"lo2":-89.0444,"dy":0.0017,"dx":0.0017,"nx":28,"ny":28,"refTime":"2025-04-05T21:00:00:Z","depth":0,"parameterNumber":2,"parameterNumberName":"U-component_of_WINDS"},"data":[0,0,0,0,0,0,0,0,0,0,0,0,0,0,0,0,0,0,0,0,0,0,0,0,0,0,0,0,0,0,0,0,0,0,0,0,0,0,0,0,0,0,0,0,0,0,0,0,0,0,0,0,0,0,0,0,0,0,-4.4801,-4.4802,0,-4.4946,-4.4948,-4.4949,-4.499,-4.4989,-4.4988,-4.4988,-4.5137,-4.5141,-4.5146,0,0,0,0,0,0,0,0,0,0,0,0,0,-4.456,-4.4564,-4.4801,-4.4802,-4.4804,-4.4946,-4.4948,-4.495,-4.499,-4.4989,-4.4988,-4.4987,-4.5135,-4.5141,-4.5146,0,0,0,0,0,0,0,0,0,0,0,0,0,-4.4681,-4.4566,-4.48,-4.4841,-4.4847,-4.4945,-4.4948,-4.495,-4.499,-4.4989,-4.4988,-4.4987,-4.5133,-4.514,-4.5147,-4.5216,0,0,-4.5169,-4.5172,0,0,0,0,0,0,0,0,-4.4674,-4.469,-4.4834,-4.4839,-4.4845,-4.4949,-4.4918,-4.5039,-4.4991,-4.4936,-4.4988,-4.4986,-4.5075,-4.5087,-4.5117,-4.5223,-4.5229,-4.517,-4.5174,-4.5177,-4.5179,0,0,0,0,0,0,0,-4.4665,-4.4684,-4.4858,-4.4836,-4.4842,-4.4853,-4.4869,-4.4941,-4.5011,-4.494,-4.4944,-4.496,-4.5078,-4.511,-4.5121,-4.5231,-4.5169,-4.5176,-4.518,-4.5183,-4.5402,-4.5404,0,0,0,0,0,0,-4.465,-4.4676,-4.4854,-4.4863,-4.4755,-4.4859,-4.4876,-4.4916,-4.501,-4.5023,-4.4961,-4.4962,-4.5098,-4.5112,-4.5126,-4.5213,-4.5177,-4.5183,-4.5188,-4.5401,-4.5402,-4.5404,0,0,0,0,0,0,-4.4645,-4.4665,-4.4848,-4.477,-4.4794,-4.4864,-4.4909,-4.492,-4.4952,-4.5026,-4.5038,-4.4981,-4.5098,-4.5116,-4.5193,-4.5218,-4.5187,-4.5193,-4.5399,-4.5401,-4.5403,-4.5386,0,0,0,0,0,0,-4.4637,-4.4663,-4.4689,-4.4771,-4.4798,-4.4912,-4.491,-4.4924,-4.4964,-4.4966,-4.5047,-4.506,-4.5098,-4.5183,-4.52,-4.5227,-4.5199,-4.5397,-4.54,-4.5403,-4.5384,-4.5387,-4.5389,0,0,0,0,0,-4.4629,-4.4678,-4.469,-4.4711,-4.4832,-4.4913,-4.4929,-4.4972,-4.4966,-4.4993,-4.5041,-4.5057,-4.5213,-4.519,-4.5211,-4.524,-4.5395,-4.5399,-4.5402,-4.5383,-4.5386,-4.5389,0,0,0,0,0,0,-4.4597,-4.4689,-4.4704,-4.4781,-4.4839,-4.492,-4.4955,-4.4974,-4.5035,-4.5034,-4.5086,-4.5104,-4.5178,-4.5217,-4.519,-4.5312,-4.5305,-4.5313,-4.5283,-4.5287,-4.529,-4.5277,-4.5205,0,0,0,0,0,-4.4599,-4.4656,-4.4734,-4.4795,-4.4823,-4.4884,-4.4921,-4.495,-4.5012,-4.5036,-4.509,-4.5149,-4.5212,-4.5252,-4.5314,-4.5391,-4.541,-4.5422,-4.5425,-4.5426,-4.5432,-4.5476,-4.5483,-4.5416,-4.5416,-4.5416,0,0,-4.4603,-4.4661,-4.4694,-4.479,-4.4838,-4.4897,-4.4904,-4.4966,-4.501,-4.5046,-4.5121,-4.5163,-4.5234,-4.5311,-4.5348,-4.5347,-4.5455,-4.5431,-4.5432,-4.5436,-4.5481,-4.5487,-4.5492,-4.5418,-4.5418,-4.5417,0,0,-4.4641,-4.4691,-4.4747,-4.4795,-4.4869,-4.4909,-4.4923,-4.5002,-4.5031,-4.5108,-4.5136,-4.5191,-4.5297,-4.5347,-4.5386,-4.5446,-4.5463,-4.5465,-4.5477,-4.552,-4.5526,-4.553,-4.5551,-4.5558,-4.547,-4.547,-4.547,0,-4.4637,-4.4726,-4.4773,-4.4834,-4.4875,-4.4912,-4.4969,-4.5015,-4.5104,-4.5132,-4.513,-4.5266,-4.5316,-4.5406,-4.542,-4.5451,-4.5469,-4.5454,-4.5521,-4.5526,-4.5532,-4.5552,-4.556,-4.547,-4.547,-4.547,-4.547,0,-4.4718,-4.4779,-4.4816,-4.4902,-4.4949,-4.5007,-4.5064,-4.5106,-4.5131,-4.5172,-4.5252,-4.5314,-4.5389,-4.5413,-4.5439,-4.5508,-4.5504,-4.5511,-4.5504,-4.5537,-4.5557,-4.5565,-4.5469,-4.547,-4.547,-4.547,0,0,-4.4736,-4.4849,-4.4862,-4.4902,-4.4987,-4.5036,-4.5097,-4.5171,-4.5206,-4.5268,-4.5321,-4.5412,-4.5419,-4.5463,-4.5495,-4.5533,-4.5577,-4.5536,-4.5538,-4.554,-4.5657,-4.565,-4.5658,-4.559,-4.5592,-4.5593,-4.5651,0,-4.4784,-4.4894,-4.4939,-4.5028,-4.5086,-4.5123,-4.5177,-4.5236,-4.5277,-4.5333,-4.5379,-4.5442,-4.5447,-4.5474,-4.5514,-4.5563,-4.5601,-4.556,-4.564,-4.5642,-4.5618,-4.5669,-4.5661,-4.5712,-4.5659,-4.566,-4.5661,0,-4.4853,-4.4915,-4.501,-4.509,-4.5116,-4.5163,-4.5235,-4.5288,-4.5356,-4.5384,-4.5435,-4.5465,-4.5532,-4.5523,-4.5617,-4.5588,-4.5624,-4.5654,-4.5657,-4.5664,-4.5652,-4.5676,-4.5729,-4.5736,-4.5674,-4.5673,-4.5672,0,-4.4855,-4.4964,-4.5035,-4.5068,-4.5163,-4.5195,-4.5236,-4.5303,-4.5345,-4.5409,-4.5437,-4.5508,-4.5547,-4.5602,-4.5651,-4.564,-4.574,-4.5735,-4.5765,-4.5763,-4.5782,-4.5779,-4.584,-4.5808,-4.5808,-4.5808,-4.5807,0,-4.4903,-4.4959,-4.5037,-4.5081,-4.5146,-4.5199,-4.5262,-4.5306,-4.5365,-4.5419,-4.5456,-4.5505,-4.5569,-4.5627,-4.5666,-4.5737,-4.5755,-4.5779,-4.5788,-4.5775,-4.5771,-4.5797,-4.5794,-4.581,-4.5809,-4.5809,-4.5808,0,-4.4915,-4.497,-4.505,-4.5134,-4.5156,-4.52,-4.5273,-4.5317,-4.5361,-4.5428,-4.5447,-4.5516,-4.5587,-4.5642,-4.5734,-4.5761,-4.5836,-4.5847,-4.5812,-4.5817,-4.5843,-4.5839,-4.592,-4.5934,-4.5894,-4.5894,-4.5894,0,-4.4941,-4.4985,-4.5074,-4.5113,-4.5153,-4.5215,-4.5258,-4.5313,-4.5357,-4.5439,-4.5474,-4.5547,-4.5608,-4.5719,-4.5778,-4.5849,-4.5861,-4.5885,-4.5872,-4.5857,-4.586,-4.5856,-4.5861,-4.5886,-4.5886,-4.5886,-4.5886,0,-4.498,-4.5005,-4.5066,-4.5138,-4.5189,-4.5248,-4.5307,-4.5337,-4.5403,-4.5451,-4.5523,-4.5571,-4.5665,-4.5737,-4.5815,-4.5858,-4.5883,-4.589,-4.5901,-4.5886,-4.5863,-4.5875,-4.5815,-4.5887,-4.5887,-4.5887,-4.5887,-4.5887,-4.4999,-4.5041,-4.511,-4.5178,-4.5229,-4.5284,-4.533,-4.538,-4.5441,-4.5522,-4.5552,-4.5626,-4.5695,-4.5802,-4.5846,-4.5906,-4.5908,-4.5923,-4.5926,-4.5929,-4.5927,-4.5856,-4.5921,-4.5921,-4.5921,-4.5921,-4.5921,0,-4.504,-4.5087,-4.5148,-4.5231,-4.5284,-4.5304,-4.5372,-4.5415,-4.548,-4.5543,-4.5603,-4.5686,-4.5757,-4.5823,-4.5897,-4.5933,-4.5946,-4.595,-4.5947,-4.5957,-4.5922,-4.5905,-4.5938,-4.5938,-4.5938,-4.5938,-4.5938,-4.5938,-4.5067,-4.5138,-4.5172,-4.527,-4.5317,-4.539,-4.5427,-4.5479,-4.5529,-4.5621,-4.568,-4.5722,-4.5786,-4.5866,-4.5933,-4.595,-4.5975,-4.5976,-4.5997,-4.5962,-4.5959,-4.5957,-4.5941,-4.5982,-4.5982,-4.6027,-4.6027,-4.6028]},{"header":{"parameterUnit":"m.s-1","parameterCategory":1,"la1":30.2991,"la2":30.254,"lo1":-89.0895,"lo2":-89.0444,"dy":0.0017,"dx":0.0017,"nx":28,"ny":28,"refTime":"2025-04-05T21:00:00:Z","depth":0,"parameterNumber":3,"parameterNumberName":"V-component_of_WINDS"},"data":[0,0,0,0,0,0,0,0,0,0,0,0,0,0,0,0,0,0,0,0,0,0,0,0,0,0,0,0,0,0,0,0,0,0,0,0,0,0,0,0,0,0,0,0,0,0,0,0,0,0,0,0,0,0,0,0,0,0,6.509,6.509,0,6.5062,6.5062,6.5062,6.5051,6.5051,6.5051,6.5051,6.5018,6.5017,6.5016,0,0,0,0,0,0,0,0,0,0,0,0,0,6.5131,6.513,6.509,6.509,6.5089,6.5062,6.5062,6.5062,6.5051,6.5051,6.5051,6.5051,6.5018,6.5017,6.5016,0,0,0,0,0,0,0,0,0,0,0,0,0,6.5109,6.513,6.509,6.5081,6.508,6.5062,6.5062,6.5061,6.5051,6.5051,6.5051,6.5051,6.5018,6.5017,6.5015,6.5004,0,0,6.5011,6.501,0,0,0,0,0,0,0,0,6.511,6.5108,6.5083,6.5081,6.508,6.506,6.5064,6.5042,6.5051,6.5062,6.5051,6.5051,6.5031,6.5029,6.5023,6.5002,6.5001,6.5011,6.501,6.5009,6.5009,0,0,0,0,0,0,0,6.5112,6.5109,6.5079,6.5082,6.5081,6.5077,6.5074,6.506,6.5046,6.5061,6.506,6.5057,6.5031,6.5025,6.5022,6.5,6.5011,6.501,6.5009,6.5008,6.4971,6.4971,0,0,0,0,0,0,6.5115,6.511,6.508,6.5078,6.5096,6.5076,6.5073,6.5066,6.5046,6.5043,6.5057,6.5057,6.5027,6.5024,6.5021,6.5008,6.5009,6.5008,6.5007,6.4971,6.4971,6.4971,0,0,0,0,0,0,6.5116,6.5113,6.5081,6.5094,6.509,6.5076,6.5068,6.5066,6.506,6.5043,6.504,6.5053,6.5027,6.5023,6.5009,6.5007,6.5007,6.5006,6.4972,6.4971,6.4971,6.4981,0,0,0,0,0,0,6.5118,6.5113,6.5109,6.5094,6.5089,6.507,6.5068,6.5065,6.5058,6.5057,6.5039,6.5036,6.5027,6.5012,6.5008,6.5005,6.5005,6.4972,6.4972,6.4971,6.4981,6.4981,6.4981,0,0,0,0,0,6.5119,6.5111,6.5109,6.5105,6.5084,6.507,6.5067,6.5058,6.5058,6.5053,6.5043,6.5037,6.5008,6.501,6.5006,6.5002,6.4972,6.4972,6.4971,6.4981,6.4981,6.4981,0,0,0,0,0,0,6.5123,6.5109,6.5106,6.5093,6.5083,6.5068,6.5062,6.5058,6.5046,6.5046,6.5034,6.503,6.5017,6.5008,6.5011,6.4992,6.4989,6.4988,6.4998,6.4998,6.4998,6.5001,6.5004,0,0,0,0,0,6.5123,6.5115,6.5102,6.5092,6.5087,6.5076,6.5069,6.5064,6.5052,6.5047,6.5036,6.5024,6.5012,6.5005,6.4993,6.498,6.4976,6.4975,6.4976,6.4976,6.4975,6.497,6.497,6.4971,6.4971,6.4971,0,0,6.5122,6.5113,6.5108,6.5092,6.5084,6.5075,6.5072,6.5062,6.5055,6.5045,6.5032,6.5024,6.501,6.4997,6.4991,6.4989,6.4975,6.4976,6.4976,6.4975,6.497,6.497,6.497,6.497,6.497,6.497,0,0,6.5115,6.5107,6.51,6.5092,6.5081,6.5074,6.5072,6.5059,6.5053,6.5041,6.5034,6.5025,6.5005,6.4996,6.4989,6.4983,6.4978,6.498,6.4981,6.4976,6.4976,6.4976,6.4976,6.4976,6.4979,6.4979,6.4979,0,6.5115,6.5102,6.5095,6.5087,6.5081,6.5074,6.5066,6.5059,6.5043,6.5039,6.5038,6.5015,6.5005,6.4991,6.499,6.4984,6.4982,6.4981,6.4977,6.4977,6.4977,6.4976,6.4976,6.4979,6.4979,6.4979,6.4979,0,6.5103,6.5095,6.509,6.5078,6.5071,6.5063,6.5054,6.5048,6.5044,6.5037,6.5026,6.5014,6.5001,6.4997,6.4991,6.4983,6.4983,6.498,6.4977,6.4977,6.4977,6.4976,6.498,6.498,6.498,6.4979,0,0,6.5096,6.5084,6.5082,6.5078,6.5067,6.506,6.5052,6.5042,6.5037,6.5027,6.5021,6.5006,6.5004,6.4996,6.4989,6.4985,6.4984,6.4982,6.4982,6.4984,6.4977,6.498,6.498,6.498,6.498,6.498,6.4979,0,6.5089,6.5077,6.5072,6.5061,6.5054,6.5049,6.5043,6.5035,6.5029,6.5022,6.5014,6.5005,6.5002,6.4998,6.4993,6.4985,6.4982,6.4985,6.4974,6.4974,6.4979,6.4979,6.4982,6.4981,6.4978,6.4978,6.4978,0,6.5079,6.5072,6.5062,6.5055,6.5051,6.5046,6.5037,6.5031,6.5022,6.5018,6.5011,6.5006,6.4998,6.4997,6.4986,6.4988,6.4983,6.4979,6.4978,6.4977,6.4976,6.4979,6.498,6.498,6.4977,6.4977,6.4977,0,6.5077,6.5065,6.5059,6.5055,6.5045,6.5042,6.5038,6.5029,6.5025,6.5017,6.5014,6.5005,6.5,6.4993,6.4985,6.4985,6.4976,6.4973,6.4973,6.4973,6.4971,6.4971,6.4972,6.4967,6.4967,6.4967,6.4967,0,6.507,6.5064,6.5058,6.5054,6.5048,6.5042,6.5036,6.5031,6.5025,6.5019,6.5014,6.5008,6.4999,6.4992,6.4986,6.4979,6.4976,6.4973,6.4972,6.4974,6.4975,6.4971,6.4971,6.4967,6.4967,6.4967,6.4967,0,6.5066,6.5062,6.5055,6.5048,6.5046,6.5042,6.5036,6.5032,6.5027,6.502,6.5018,6.501,6.5003,6.4995,6.4984,6.498,6.4974,6.4971,6.4978,6.4977,6.4978,6.4978,6.4976,6.4977,6.4971,6.4971,6.4971,0,6.5062,6.5058,6.5052,6.505,6.5046,6.5041,6.5038,6.5032,6.5029,6.5021,6.5018,6.5011,6.5005,6.4994,6.4986,6.4979,6.4976,6.4977,6.4975,6.4979,6.4978,6.4979,6.4979,6.4977,6.4977,6.4977,6.4977,0,6.5056,6.5055,6.5051,6.5047,6.5043,6.5039,6.5034,6.5032,6.5026,6.5022,6.5016,6.5012,6.5004,6.4997,6.4989,6.4984,6.498,6.4978,6.4978,6.498,6.4985,6.4984,6.498,6.4978,6.4978,6.4978,6.4978,6.4978,6.5053,6.5051,6.5047,6.5043,6.504,6.5037,6.5034,6.503,6.5026,6.502,6.5017,6.5011,6.5005,6.4995,6.499,6.4986,6.4984,6.4983,6.4983,6.4983,6.4985,6.4986,6.4984,6.4984,6.4984,6.4984,6.4984,0,6.5048,6.5046,6.5043,6.5039,6.5036,6.5035,6.5031,6.5029,6.5025,6.502,6.5016,6.501,6.5005,6.4999,6.4993,6.4991,6.4989,6.4989,6.499,6.4989,6.4986,6.4987,6.4991,6.4991,6.4991,6.4991,6.4991,6.4991,6.5045,6.5042,6.5041,6.5036,6.5034,6.5031,6.5029,6.5026,6.5023,6.5018,6.5015,6.5011,6.5007,6.5001,6.4997,6.4995,6.4993,6.4995,6.4993,6.4989,6.4989,6.4988,6.499,6.4994,6.4994,6.4997,6.4997,6.4997]}]]